TimeCST,TemperatureF,Dew PointF,Humidity,Sea Level PressureIn,VisibilityMPH,Wind Direction,Wind SpeedMPH,Gust SpeedMPH,PrecipitationIn,Events,Conditions,WindDirDegrees,DateUTC
12:15 AM,19.8,14.9,81,30.23,10.0,West,9.2,-,N/A,,Overcast,260,2013-01-04 06:15:00
12:35 AM,18.9,14.9,85,30.24,10.0,West,8.1,-,N/A,,Overcast,260,2013-01-04 06:35:00
12:55 AM,18.5,14.5,85,30.24,10.0,West,8.1,-,N/A,,Overcast,270,2013-01-04 06:55:00
1:15 AM,18.1,14.4,85,30.24,7.0,West,8.1,-,N/A,,Overcast,260,2013-01-04 07:15:00
1:35 AM,17.6,14.0,86,30.23,10.0,West,6.9,-,N/A,,Overcast,260,2013-01-04 07:35:00
1:55 AM,17.4,13.6,85,30.23,10.0,WSW,8.1,-,N/A,,Overcast,240,2013-01-04 07:55:00
2:15 AM,17.4,13.6,85,30.23,10.0,WSW,9.2,-,N/A,,Overcast,250,2013-01-04 08:15:00
2:55 AM,17.2,13.1,84,30.22,10.0,WSW,8.1,-,N/A,,Overcast,250,2013-01-04 08:55:00
3:15 AM,16.7,12.7,84,30.22,10.0,WSW,8.1,-,N/A,,Overcast,240,2013-01-04 09:15:00
5:55 AM,14.7,7.7,74,30.21,10.0,WSW,10.4,-,N/A,,Overcast,250,2013-01-04 11:55:00
6:15 AM,14.5,7.5,74,30.21,10.0,WSW,9.2,-,N/A,,Overcast,240,2013-01-04 12:15:00
6:35 AM,13.8,8.6,80,30.21,10.0,WSW,9.2,-,N/A,,Overcast,240,2013-01-04 12:35:00
7:15 AM,12.9,9.3,86,30.21,10.0,WSW,11.5,-,N/A,,Mostly Cloudy,240,2013-01-04 13:15:00
7:35 AM,12.7,8.8,84,30.21,10.0,WSW,11.5,-,N/A,,Mostly Cloudy,240,2013-01-04 13:35:00
7:55 AM,12.9,8.6,83,30.21,10.0,WSW,9.2,-,N/A,,Mostly Cloudy,240,2013-01-04 13:55:00
8:15 AM,13.1,8.6,82,30.22,10.0,SW,8.1,-,N/A,,Scattered Clouds,230,2013-01-04 14:15:00
8:35 AM,13.6,9.1,82,30.22,10.0,SW,11.5,-,N/A,,Scattered Clouds,230,2013-01-04 14:35:00
8:55 AM,14.5,9.5,80,30.24,10.0,SW,12.7,-,N/A,,Scattered Clouds,230,2013-01-04 14:55:00
9:15 AM,15.1,9.7,79,30.25,10.0,WSW,12.7,-,N/A,,Scattered Clouds,240,2013-01-04 15:15:00
9:35 AM,16.2,10.4,78,30.25,10.0,SW,11.5,-,N/A,,Clear,230,2013-01-04 15:35:00
9:55 AM,17.4,11.5,78,30.24,10.0,SW,10.4,-,N/A,,Clear,230,2013-01-04 15:55:00
10:15 AM,18.7,12.6,77,30.23,10.0,SW,11.5,-,N/A,,Clear,230,2013-01-04 16:15:00
10:35 AM,19.9,13.3,75,30.22,10.0,SW,12.7,-,N/A,,Clear,230,2013-01-04 16:35:00
10:55 AM,19.9,13.8,77,30.21,10.0,SW,13.8,-,N/A,,Clear,230,2013-01-04 16:55:00
11:15 AM,21.6,14.5,74,30.21,10.0,SW,15.0,19.6,N/A,,Clear,230,2013-01-04 17:15:00
11:35 AM,22.6,15.4,74,30.19,10.0,SW,17.3,-,N/A,,Clear,230,2013-01-04 17:35:00
11:55 AM,24.3,16.7,73,30.19,10.0,SW,15.0,18.4,N/A,,Clear,230,2013-01-04 17:55:00
12:15 PM,25.7,17.4,71,30.18,10.0,WSW,13.8,18.4,N/A,,Clear,240,2013-01-04 18:15:00
12:35 PM,26.6,18.0,70,30.17,10.0,SW,15.0,21.9,N/A,,Clear,230,2013-01-04 18:35:00
12:55 PM,27.5,18.5,69,30.16,10.0,SW,15.0,-,N/A,,Clear,230,2013-01-04 18:55:00
1:15 PM,28.0,18.9,68,30.16,10.0,SW,17.3,23.0,N/A,,Clear,230,2013-01-04 19:15:00
1:35 PM,28.6,19.4,69,30.15,10.0,WSW,16.1,21.9,N/A,,Clear,240,2013-01-04 19:35:00
1:55 PM,29.1,19.9,69,30.15,10.0,SW,16.1,21.9,N/A,,Clear,230,2013-01-04 19:55:00
2:15 PM,29.3,20.3,69,30.15,10.0,SW,17.3,23.0,N/A,,Clear,230,2013-01-04 20:15:00
2:35 PM,29.7,20.8,70,30.16,10.0,SW,21.9,25.3,N/A,,Clear,230,2013-01-04 20:35:00
2:55 PM,28.9,20.8,72,30.16,10.0,SW,18.4,25.3,N/A,,Clear,230,2013-01-04 20:55:00
3:15 PM,28.6,20.8,73,30.16,10.0,SW,20.7,25.3,N/A,,Clear,230,2013-01-04 21:15:00
3:35 PM,28.4,21.0,74,30.16,10.0,SW,16.1,23.0,N/A,,Clear,230,2013-01-04 21:35:00
3:55 PM,28.0,21.0,75,30.17,10.0,SW,15.0,23.0,N/A,,Clear,230,2013-01-04 21:55:00
4:15 PM,27.5,21.2,77,30.17,10.0,SW,16.1,21.9,N/A,,Clear,230,2013-01-04 22:15:00
4:35 PM,27.5,21.2,77,30.17,10.0,SW,16.1,21.9,N/A,,Scattered Clouds,230,2013-01-04 22:35:00
4:55 PM,27.3,21.2,78,30.18,10.0,WSW,16.1,20.7,N/A,,Mostly Cloudy,240,2013-01-04 22:55:00
5:35 PM,26.8,21.0,79,30.19,10.0,WSW,13.8,21.9,N/A,,Overcast,240,2013-01-04 23:35:00
5:55 PM,27.0,21.0,78,30.20,10.0,WSW,15.0,-,N/A,,Overcast,240,2013-01-04 23:55:00
6:15 PM,26.6,20.8,79,30.21,10.0,WSW,13.8,20.7,N/A,,Overcast,250,2013-01-05 00:15:00
6:35 PM,26.6,20.7,78,30.21,10.0,WSW,12.7,20.7,N/A,,Overcast,240,2013-01-05 00:35:00
6:55 PM,26.1,20.7,80,30.22,10.0,WSW,9.2,-,N/A,,Overcast,240,2013-01-05 00:55:00
7:15 PM,25.7,20.3,80,30.22,10.0,WSW,8.1,-,N/A,,Overcast,240,2013-01-05 01:15:00
7:35 PM,25.0,20.1,82,30.22,10.0,SW,6.9,-,N/A,,Overcast,230,2013-01-05 01:35:00
7:55 PM,24.8,20.3,83,30.22,10.0,WSW,9.2,-,N/A,,Overcast,240,2013-01-05 01:55:00
8:15 PM,25.0,20.3,82,30.22,10.0,WSW,8.1,-,N/A,,Overcast,240,2013-01-05 02:15:00
8:35 PM,24.8,20.3,83,30.22,10.0,WSW,8.1,-,N/A,,Overcast,240,2013-01-05 02:35:00
8:55 PM,23.5,19.4,84,30.23,10.0,WSW,5.8,-,N/A,,Overcast,240,2013-01-05 02:55:00
9:15 PM,23.5,19.6,85,30.23,10.0,SW,6.9,-,N/A,,Overcast,230,2013-01-05 03:15:00
9:35 PM,23.0,19.4,86,30.23,10.0,SW,6.9,-,N/A,,Overcast,230,2013-01-05 03:35:00
9:55 PM,23.0,19.4,86,30.23,10.0,WSW,9.2,-,N/A,,Overcast,240,2013-01-05 03:55:00
10:15 PM,23.9,19.9,85,30.24,10.0,WSW,8.1,-,N/A,,Overcast,240,2013-01-05 04:15:00
10:35 PM,23.9,19.6,84,30.24,10.0,WSW,5.8,-,N/A,,Overcast,240,2013-01-05 04:35:00
10:55 PM,23.7,19.4,84,30.24,10.0,WSW,6.9,-,N/A,,Overcast,240,2013-01-05 04:55:00
11:15 PM,22.5,18.7,85,30.24,10.0,SW,5.8,-,N/A,,Overcast,230,2013-01-05 05:15:00
11:35 PM,23.0,19.2,85,30.24,10.0,SW,6.9,-,N/A,,Overcast,230,2013-01-05 05:35:00
11:55 PM,23.4,19.2,84,30.24,10.0,WSW,8.1,-,N/A,,Overcast,240,2013-01-05 05:55:00